Weather History for Cocoa Beach, FL

Change the Weather History Date:

Thursday, January 17, 2013

  Actual Average (KCOF) Record (KCOF)
Temperature  
Mean Temperature 21 °C -  
Max Temperature 28 °C 20 °C 27 °C (2013)
Min Temperature 13 °C 11 °C 3 °C (1997)
Cooling Degree Days 4    
Growing Degree Days 19 (Base 50)    
Moisture  
Dew Point 16 °C    
Average Humidity 76    
Maximum Humidity 93    
Minimum Humidity 52    
Precipitation  
Precipitation 0.00 mm - - ()
Sea Level Pressure  
Sea Level Pressure 1016 hPa    
Wind  
Wind Speed 18 km/h (WSW)    
Max Wind Speed 39 km/h    
Max Gust Speed 53 km/h    
Visibility 16 kilometers    
Events      
Averages and records for this station are not official NWS values.
T = Trace of Precipitation, MM = Missing Value Source: NWS Daily Summary

Daily Weather History Graph

Daily Weather History Graph

Search for Another Location

Airport:

Trip Planner

Search our weather history database for the weather conditions in past years. The results will help you decide how hot, cold, wet, or windy it might be!

Date:

Astronomy

Jan. 17, 2013 Rise Set
Actual Time 7:15 AM EST 5:49 PM EST
Civil Twilight 6:50 AM EST 6:15 PM EST
Nautical Twilight 6:21 AM EST 6:43 PM EST
Astronomical Twilight 5:52 AM EST 7:12 PM EST
Moon 10:57 AM EST (1/17) No Moon Set
Length of Visible Light 11h 24m
Length of Day
10h 34m
Waxing Crescent, 37% of the Moon is Illuminated
Jan 17
Waxing Crescent
Jan 18
First Quarter
Jan 26
Full
Feb 3
Last Quarter
Feb 10
New

Hourly Weather History & Observations

Time (EST) Temp. Heat Index Dew Point Humidity Pressure Visibility Wind Dir Wind Speed Gust Speed Precip Events Conditions
12:55 AM 21.5 °C - 20.0 °C 91% 1017.2 hPa 16.1 km South 13.0 km/h / 3.6 m/s - N/A   Clear
1:55 AM 21.1 °C - 19.8 °C 92% 1017.2 hPa 16.1 km South 13.0 km/h / 3.6 m/s - N/A   Clear
2:55 AM 21.2 °C - 19.9 °C 92% 1016.7 hPa 16.1 km South 14.8 km/h / 4.1 m/s - N/A   Clear
3:55 AM 20.8 °C - 19.2 °C 91% 1016.6 hPa 16.1 km SSW 9.3 km/h / 2.6 m/s - N/A   Clear
4:55 AM 19.9 °C - 18.2 °C 90% 1016.9 hPa 16.1 km SSW 7.4 km/h / 2.1 m/s - N/A   Partly Cloudy
5:55 AM 19.4 °C - 17.7 °C 90% 1016.9 hPa 16.1 km WSW 7.4 km/h / 2.1 m/s - N/A   Clear
6:55 AM 19.7 °C - 18.1 °C 90% 1017.3 hPa 16.1 km SW 5.6 km/h / 1.5 m/s - N/A   Clear
7:55 AM 19.0 °C - 17.9 °C 93% 1017.6 hPa 16.1 km WSW 7.4 km/h / 2.1 m/s - N/A   Clear
8:55 AM 20.8 °C - 18.6 °C 87% 1017.8 hPa 16.1 km SSW 9.3 km/h / 2.6 m/s - N/A   Clear
9:55 AM 23.7 °C - 19.2 °C 76% 1017.9 hPa 16.1 km South 14.8 km/h / 4.1 m/s - N/A   Clear
10:55 AM 24.9 °C - 20.1 °C 75% 1017.0 hPa 16.1 km South 20.4 km/h / 5.7 m/s - N/A   Clear
11:24 AM 25.0 °C - 20.0 °C 74% 1016.6 hPa 16.1 km South 18.5 km/h / 5.1 m/s - N/A   Mostly Cloudy
11:46 AM 26.0 °C - 19.0 °C 65% 1016.1 hPa 16.1 km SSW 24.1 km/h / 6.7 m/s - N/A   Scattered Clouds
11:55 AM 26.3 °C - 19.2 °C 65% 1016.0 hPa 16.1 km South 22.2 km/h / 6.2 m/s - N/A   Partly Cloudy
12:55 PM 27.3 °C 28.5 °C 19.0 °C 60% 1014.7 hPa 16.1 km SW 25.9 km/h / 7.2 m/s - N/A   Partly Cloudy
1:55 PM 28.0 °C 28.6 °C 17.4 °C 52% 1013.2 hPa 16.1 km SSW 22.2 km/h / 6.2 m/s 42.6 km/h / 11.8 m/s N/A   Clear
2:39 PM 26.0 °C - 19.0 °C 65% 1013.1 hPa 16.1 km West 27.8 km/h / 7.7 m/s 40.7 km/h / 11.3 m/s N/A   Mostly Cloudy
2:55 PM 25.0 °C - 18.6 °C 67% 1013.2 hPa 16.1 km West 20.4 km/h / 5.7 m/s - N/A   Mostly Cloudy
3:14 PM 24.0 °C - 18.0 °C 69% 1013.7 hPa 16.1 km West 27.8 km/h / 7.7 m/s 38.9 km/h / 10.8 m/s N/A   Light Drizzle
3:27 PM 23.0 °C - 18.0 °C 73% 1013.9 hPa 16.1 km West 27.8 km/h / 7.7 m/s 42.6 km/h / 11.8 m/s N/A   Overcast
3:55 PM 22.5 °C - 17.1 °C 71% 1014.3 hPa 16.1 km West 31.5 km/h / 8.7 m/s 40.7 km/h / 11.3 m/s 0.0 mm   Mostly Cloudy
4:10 PM 21.0 °C - 17.0 °C 78% 1014.8 hPa 16.1 km WNW 35.2 km/h / 9.8 m/s 48.2 km/h / 13.4 m/s N/A   Overcast
4:55 PM 17.7 °C - 13.5 °C 76% 1015.8 hPa 16.1 km West 38.9 km/h / 10.8 m/s 53.7 km/h / 14.9 m/s N/A   Overcast
5:32 PM 17.0 °C - 12.0 °C 72% 1016.2 hPa 16.1 km West 33.3 km/h / 9.3 m/s 44.4 km/h / 12.3 m/s N/A   Scattered Clouds
5:55 PM 16.9 °C - 11.8 °C 72% 1016.6 hPa 16.1 km West 35.2 km/h / 9.8 m/s 44.4 km/h / 12.3 m/s N/A   Partly Cloudy
6:55 PM 16.2 °C - 11.0 °C 71% 1017.0 hPa 16.1 km West 31.5 km/h / 8.7 m/s 40.7 km/h / 11.3 m/s N/A   Mostly Cloudy
7:55 PM 15.8 °C - 9.2 °C 65% 1017.7 hPa 16.1 km West 33.3 km/h / 9.3 m/s 42.6 km/h / 11.8 m/s N/A   Partly Cloudy
8:55 PM 15.4 °C - 8.6 °C 64% 1018.1 hPa 16.1 km West 33.3 km/h / 9.3 m/s 48.2 km/h / 13.4 m/s N/A   Scattered Clouds
9:55 PM 14.3 °C - 8.6 °C 69% 1018.2 hPa 16.1 km West 31.5 km/h / 8.7 m/s 42.6 km/h / 11.8 m/s N/A   Clear
10:55 PM 13.6 °C - 8.8 °C 73% 1018.5 hPa 16.1 km West 24.1 km/h / 6.7 m/s 35.2 km/h / 9.8 m/s N/A   Clear
11:55 PM 12.9 °C - 8.2 °C 73% 1018.9 hPa 16.1 km WNW 25.9 km/h / 7.2 m/s - N/A   Clear